Location: Newark
(7.0858°N, 171.3717°E)
Time: 07:53:12
(UTC+00:00)

Courier 1B - Pass Details

Date: 29 November 2020
Orbit: 962 x 1209 km, 28.3° (Epoch: 20 January)

Event Time Altitude Azimuth Distance (km) Brightness Sun altitude
Rises 15:40:32 0° 311° (NW) 3,959 - -40.3°
Reaches altitude 10° 15:43:32 10° 319° (NW) 3,035 - -39.6°
Maximum altitude 15:50:25 37° 25° (NNE) 1,751 - -38.0°
Exits shadow 15:51:42 35° 45° (NE) 1,820 8.9 -37.7°
Drops below altitude 10° 15:57:30 10° 90° (E) 3,136 10.8 -36.4°
Sets 16:00:38 0° 98° (E) 4,105 11.7 -35.6°
